Selinsgrove, PA

5:02 PM EST on November 11, 2019 (GMT -0500)
Penn Valley

Weather History for KSEG - October, 2019

Change the Weather History Date:

Monday, October 21, 2019

  Actual Average (KIPT) Record (KIPT)
Temperature  
Mean Temperature 54 °F -  
Max Temperature 64 °F 57 °F 86 °F (1947)
Min Temperature 44 °F 38 °F 24 °F (1972)
Degree Days  
Heating Degree Days 12    
Growing Degree Days 4 (Base 50)    
Moisture  
Dew Point 47 °F    
Average Humidity 91    
Maximum Humidity 100    
Minimum Humidity 63    
Precipitation  
Precipitation 0.00 in - - ()
Sea Level Pressure  
Sea Level Pressure 30.07 in    
Wind  
Wind Speed 1 mph (NNE)    
Max Wind Speed 8 mph    
Max Gust Speed -    
Visibility 6 miles    
Events Fog    
Averages and records for this station are not official NWS values.
T = Trace of Precipitation, MM = Missing Value Source: NWS Daily Summary

Daily Weather History Graph

Daily Weather History Graph

Search for Another Location

Airport or City:

Astronomy

Oct. 21, 2019 Rise Set
Actual Time 7:25 AM EDT 6:18 PM EDT
Civil Twilight 6:57 AM EDT 6:46 PM EDT
Nautical Twilight 6:25 AM EDT 7:18 PM EDT
Astronomical Twilight 5:53 AM EDT 7:49 PM EDT
Moon No Moon Rise 2:42 PM EDT (10/21)
Length of Visible Light 11h 49m
Length of Day
10h 53m
Waning Gibbous, 48% of the Moon is Illuminated
Oct 21
Waning Gibbous
Oct 27
New
Nov 4
First Quarter
Nov 12
Full
Nov 19
Last Quarter

Hourly Weather History & Observations

Time (EDT) Temp. Windchill Dew Point Humidity Pressure Visibility Wind Dir Wind Speed Gust Speed Precip Events Conditions
12:16 AM 45.0 °F 43.5 °F 43.0 °F 93% 30.03 in 1.0 mi North 3.5 mph - N/A   Overcast
12:19 AM 45.0 °F - 44.1 °F 97% 30.03 in 2.0 mi Calm Calm - N/A   Overcast
12:29 AM 44.1 °F - 44.1 °F 100% 30.03 in 1.2 mi Calm Calm - N/A   Overcast
12:32 AM 44.1 °F - 44.1 °F 100% 30.03 in 0.8 mi Calm Calm - N/A   Overcast
12:53 AM 44.1 °F - 44.1 °F 100% 30.04 in 0.2 mi Calm Calm - N/A Fog Fog
1:53 AM 45.0 °F - 45.0 °F 100% 30.05 in 0.5 mi Calm Calm - N/A Fog Fog
2:34 AM 46.9 °F - 46.0 °F 97% 30.04 in 0.5 mi Calm Calm - N/A Fog Fog
2:49 AM 46.4 °F - 46.4 °F 100% 30.04 in 1.2 mi Calm Calm - N/A   Overcast
2:53 AM 46.9 °F - 46.0 °F 97% 30.04 in 1.2 mi Calm Calm - N/A   Overcast
3:11 AM 46.9 °F - 46.9 °F 100% 30.04 in 1.0 mi Calm Calm - N/A   Overcast
3:29 AM 48.0 °F - 46.9 °F 96% 30.04 in 0.8 mi Calm Calm - N/A   Overcast
3:45 AM 48.0 °F - 46.9 °F 96% 30.05 in 1.2 mi Calm Calm - N/A   Overcast
3:53 AM 48.0 °F - 46.9 °F 96% 30.05 in 1.0 mi Calm Calm - N/A   Overcast
4:08 AM 46.9 °F - 46.9 °F 100% 30.05 in 1.5 mi Calm Calm - N/A   Overcast
4:33 AM 48.0 °F - 46.9 °F 96% 30.06 in 2.5 mi Calm Calm - N/A   Overcast
4:53 AM 48.0 °F - 46.9 °F 96% 30.06 in 2.0 mi Calm Calm - N/A   Overcast
5:24 AM 48.0 °F - 48.0 °F 100% 30.07 in 2.0 mi Calm Calm - N/A   Overcast
5:43 AM 48.9 °F - 48.0 °F 97% 30.07 in 3.0 mi Calm Calm - N/A   Overcast
5:53 AM 48.9 °F - 48.0 °F 97% 30.08 in 6.0 mi Calm Calm - N/A   Overcast
6:19 AM 50.0 °F - 48.0 °F 93% 30.09 in 4.0 mi Calm Calm - N/A   Overcast
6:53 AM 48.9 °F - 48.0 °F 97% 30.08 in 5.0 mi Calm Calm - N/A   Overcast
7:53 AM 50.0 °F - 48.0 °F 93% 30.09 in 6.0 mi NE 4.6 mph - N/A   Overcast
8:31 AM 50.0 °F - 46.9 °F 89% 30.11 in 9.0 mi NNE 6.9 mph - N/A   Overcast
8:53 AM 50.0 °F - 46.9 °F 89% 30.12 in 10.0 mi ENE 8.1 mph - N/A   Overcast
9:53 AM 50.0 °F - 46.9 °F 89% 30.14 in 8.0 mi NE 6.9 mph - N/A   Overcast
10:53 AM 51.1 °F - 46.9 °F 86% 30.15 in 10.0 mi Variable 3.5 mph - N/A   Overcast
11:33 AM 52.0 °F - 46.9 °F 83% 30.13 in 10.0 mi Calm Calm - N/A   Overcast
11:53 AM 52.0 °F - 46.9 °F 83% 30.14 in 10.0 mi Calm Calm - N/A   Overcast
12:44 PM 54.0 °F - 48.0 °F 80% 30.11 in 10.0 mi Calm Calm - N/A   Overcast
12:53 PM 55.0 °F - 48.0 °F 77% 30.11 in 10.0 mi Calm Calm - N/A   Overcast
1:25 PM 57.0 °F - 48.9 °F 74% 30.10 in 10.0 mi Variable 3.5 mph - N/A   Scattered Clouds
1:53 PM 60.1 °F - 48.9 °F 67% 30.08 in 10.0 mi North 5.8 mph - N/A   Clear
3:53 PM 63.0 °F - 50.0 °F 63% 30.05 in 10.0 mi Calm Calm - N/A   Clear
4:53 PM 63.0 °F - 50.0 °F 63% 30.04 in 10.0 mi Calm Calm - N/A   Clear
5:53 PM 59.0 °F - 48.9 °F 69% 30.04 in 10.0 mi Calm Calm - N/A   Clear
6:53 PM 52.0 °F - 50.0 °F 93% 30.05 in 10.0 mi Calm Calm - N/A   Clear
7:53 PM 50.0 °F - 48.9 °F 96% 30.07 in 7.0 mi Calm Calm - N/A   Clear
8:53 PM 48.9 °F - 48.0 °F 97% 30.06 in 9.0 mi Calm Calm - N/A   Clear
9:53 PM 48.9 °F - 48.0 °F 97% 30.06 in 9.0 mi Calm Calm - N/A   Clear
10:53 PM 50.0 °F - 48.0 °F 93% 30.07 in 9.0 mi Calm Calm - N/A   Clear
11:53 PM 50.0 °F - 48.0 °F 93% 30.06 in 10.0 mi North 5.8 mph - N/A   Partly Cloudy